User: anonymous   Login
Location: Caltech
(34.1382°N, 118.1253°W)
Time: 16:36:15
(UTC-07:00)
Language:

Meteor 2-4 Rocket - Orbit

View from above orbital plane
View from above orbital plane
View from above satellite
View from above satellite

Ground track
Ground track

The orbit data is extracted from the following two-line orbital elements,

1 11289U 79021B   14302.32204455 -.00000037  00000-0 -26903-4 0  7540
2 11289 081.2493 022.4916 0076519 083.0838 339.1348 14.11455878835148
Epoch (UTC): 29 October 2014 07:43:44
Eccentricity: 0.0076519
inclination: 81.2493°
perigee height: 799 km
apogee height: 910 km
right ascension of ascending node: 22.4916°
argument of perigee: 83.0838°
revolutions per day: 14.11455878
mean anomaly at epoch: 339.1348°
orbit number at epoch: 83514

The dashed part of the orbit path shows where the satellite is in the earth's shadow,  

DLR